Location: Volcano
(19.4310°N, 155.2380°W)
Time: 11:24:17
(UTC-10:00)

ISS - Visible Passes

Search period start: 15 January 2021 00:00
Search period end: 25 January 2021 00:00
Orbit: 418 x 419 km, 51.6° (Epoch: 16 January)

Date Brightness Start Highest point End Pass type
(mag) Time Alt. Az. Time Alt. Az. Time Alt. Az.
15 Jan -2.0 19:11:53 10° WSW 19:14:49 28° NW 19:16:50 16° N visible
16 Jan -3.3 18:23:46 10° SW 18:27:04 62° NW 18:30:22 10° NNE visible
18 Jan -1.1 18:26:25 10° W 18:28:24 15° NW 18:30:23 10° N visible
